Orbital Elements at Epoch 2459000.5 (2020-May-31.0) TDB
Reference: JPL 21 (heliocentric ecliptic J2000)
Element | Value | Uncertainty (1-sigma) | Units |
e | .2553070354020182 | 3.2363e-08 | |
a | 2.57904586323577 | 1.3466e-08 | au |
q | 1.920597309727207 | 8.4084e-08 | au |
i | 5.458736831370712 | 3.6693e-06 | deg |
node | 94.5603862012551 | 6.0302e-05 | deg |
peri | 330.8523927273488 | 6.1882e-05 | deg |
M | 85.86949620352335 | 1.6182e-05 | deg |
tp | 2458639.652717589051 (2019-Jun-05.15271759) | 6.5846e-05 | TDB |
period | 1512.819189716072 4.14 | 1.1848e-05 3.244e-08 | d yr |
n | .2379663098189317 | 1.8637e-09 | deg/d |
Q | 3.237494416744333 | 1.6903e-08 | au |
|
| | Orbit Determination Parameters
Additional Information
|